Temp
44 37 34 39 40 43 41 38 37 42 49 45 46 46 52 59 58 58 59 59 63 68 71 71 72 72 70 70 70 69 69 67 68 67 68 68 68 68 69 71 74 73 73 74
39 34 46 47 44 42 41 37 36 43 48 47 45 45 50 56 60 59 60 58 61 64 65 68 69 70 70 69 69 69 69 68 69 71 70 70 70 70 71 72 72 73 72 72
39 43 48 46 42 39 38 36 37 37 45 48 45 42 48 56 61 60 61 61 61 65 66 66 68 69 69 68 69 69 69 69 70 70 70 69 70 70 69 70 70 71 71 70
38 45 44 43 42 42 33 43 42 41 38 31 47 30 43 53 56 59 59 60 59 61 67 67 68 67 68 70 71 70 69 69 68 70 70 70 67 66 66 67 68 68 69 67
39 39 39 38 42 45 37 45 42 41 38 34 38 35 39 51 52 54 57 60 59 61 65 66 67 68 69 70 69 67 66 66 67 68 68 67 67 66 66 65 65 64 64 65
42 50 47 43 45 46 45 42 40 40 34 27 35 37 35 45 54 57 58 59 59 59 62 65 68 68 66 65 65 65 66 64 66 67 66 65 65 65 64 64 63 62 61 61
41 42 45 47 38 44 43 34 25 23 20 23 39 37 40 49 59 62 60 59 58 62 61 62 63 64 64 63 64 65 65 64 65 65 66 66 65 65 65 64 62 60 58 58
31 30 40 46 39 37 38 36 21 12 17 26 41 33 39 56 60 61 60 60 58 57 62 63 64 65 64 62 64 65 66 65 65 66 65 65 65 64 64 63 61 59 58 58
32 32 46 46 45 40 36 30 36 28 32 28 34 42 49 55 53 57 58 59 58 58 61 63 63 63 63 64 65 64 63 63 64 66 66 66 66 65 62 60 60 58 58 59
35 29 43 46 45 42 39 43 28 28 17 19 31 38 39 48 49 56 56 58 51 59 62 64 63 63 64 63 62 61 61 60 61 62 64 64 63 62 60 59 58 58 57 57
37 32 38 42 38 35 36 32 32 33 33 29 27 33 45 45 48 56 58 52 56 61 62 61 61 61 60 60 60 59 59 59 59 59 59 59 59 59 59 57 57 56 55 55
39 35 30 36 46 46 41 35 34 24 31 35 32 32 49 48 48 49 52 57 60 61 61 60 59 59 58 57 57 57 57 57 57 58 58 58 57 57 56 56 55 55 53 54
39 34 25 28 36 39 35 39 38 37 34 34 30 33 52 48 48 53 57 60 61 60 58 58 57 57 56 56 56 56 56 57 59 59 58 56 55 55 54 55 54 53 52 51
43 36 33 25 31 35 36 40 40 37 31 34 37 44 48 51 53 56 58 59 58 57 56 55 55 55 56 56 56 56 56 58 59 58 56 55 55 55 55 54 53 52 52 50
41 34 34 36 39 39 41 40 39 37 38 35 40 45 49 53 56 57 57 56 54 54 54 54 53 54 54 54 55 55 57 58 58 56 55 53 54 54 54 53 52 51 51 49
40 35 37 34 42 41 40 42 42 43 44 42 41 46 53 54 56 54 54 54 52 52 52 53 54 54 53 53 53 54 54 55 56 54 52 53 54 53 52 51 50 49 48 47
37 36 35 30 40 41 33 39 41 42 43 41 39 46 50 49 51 51 52 52 51 52 52 53 53 52 52 52 53 52 52 54 53 53 53 53 53 52 51 51 50 48 46 46
37 37 37 31 35 25 37 42 44 44 45 47 44 44 45 45 46 50 52 51 50 50 50 50 50 50 51 53 52 53 53 52 52 51 52 52 52 51 51 50 48 47 46 45
37 37 34 28 28 36 38 37 37 36 38 45 42 43 44 46 46 44 48 50 49 50 50 50 50 51 51 52 52 52 51 51 51 50 50 51 51 50 50 50 48 47 45 43
39 38 32 32 27 26 33 38 42 39 33 43 46 45 46 50 38 40 46 48 48 49 50 49 50 50 49 49 50 49 48 48 47 48 48 50 50 50 49 50 49 48 46 44
26 24 28 32 31 34 36 37 42 34 36 46 48 47 47 43 43 44 46 46 47 47 47 47 47 46 46 48 48 45 45 44 47 48 48 48 48 47 48 50 51 50 47 45
25 20 19 27 29 27 38 38 39 39 42 47 44 43 41 42 43 43 44 43 44 44 44 45 43 42 45 46 46 43 42 44 46 46 46 45 45 47 48 47 48 48 46 44
23 28 25 28 28 34 36 37 41 41 41 44 43 44 43 41 40 41 40 41 41 41 42 43 42 41 42 43 45 41 41 45 45 44 43 43 45 46 47 46 45 44 44 42
30 32 28 30 32 32 36 42 45 47 44 45 46 45 45 41 41 40 40 40 40 41 41 43 42 40 39 41 41 41 43 44 43 42 42 44 44 44 45 45 44 43 41 40
30 30 27 30 32 34 37 39 42 43 44 43 43 43 42 42 41 40 39 39 40 41 41 42 40 39 38 40 39 41 41 42 41 41 43 44 44 43 42 41 42 42 41 42
32 29 27 26 31 32 32 39 41 40 40 42 41 41 42 42 40 41 40 40 39 39 41 39 39 39 39 39 39 39 40 41 40 40 43 43 43 43 43 42 42 41 41 41
MSLP
1010.08 1010.62 1010.33 1010.11 1010.52 1010.55 1010.52 1010.34 1009.81 1009.27 1008.46 1007.89 1006.04 1005.38 1004.76 1003.18 1003.00 1002.95 1002.52 1002.62 1001.73 1001.46 1001.93 1002.59 1003.31 1003.90 1004.89 1005.75 1006.26 1006.92 1007.63 1008.22 1008.88 1009.63 1010.00 1010.45 1010.74 1011.03 1011.30 1011.65 1011.74 1012.06 1012.46 1012.76
1010.45 1009.58 1009.23 1009.53 1009.88 1010.12 1010.15 1009.99 1008.90 1008.98 1008.32 1007.67 1006.35 1005.48 1004.68 1003.62 1002.16 1002.26 1001.92 1002.24 1001.78 1001.64 1002.07 1002.70 1003.22 1003.78 1004.32 1004.99 1005.80 1006.57 1007.22 1007.73 1008.42 1008.96 1009.33 1009.78 1010.36 1011.03 1011.43 1011.76 1012.01 1012.40 1012.78 1013.30
1009.61 1008.32 1008.52 1008.91 1009.14 1009.58 1009.31 1009.24 1009.32 1009.53 1008.64 1007.59 1006.73 1005.08 1004.16 1002.48 1001.78 1001.77 1001.19 1001.12 1001.59 1001.20 1001.87 1002.53 1002.98 1003.28 1004.13 1004.96 1005.48 1006.06 1006.72 1007.42 1008.11 1008.77 1009.41 1009.98 1010.45 1011.19 1011.80 1012.32 1012.65 1012.90 1013.40 1014.28
1009.01 1007.94 1008.07 1008.02 1008.11 1008.80 1008.24 1008.81 1009.17 1009.17 1009.01 1007.91 1006.65 1004.98 1002.77 1001.93 1001.13 1001.30 1000.85 1000.62 1001.27 1001.02 1001.60 1001.96 1002.62 1003.34 1003.85 1004.28 1005.08 1005.94 1006.50 1007.19 1007.99 1008.62 1009.40 1009.96 1010.66 1011.58 1012.58 1012.88 1013.29 1013.44 1013.86 1014.36
1007.79 1007.60 1007.46 1007.26 1006.88 1007.66 1008.06 1008.31 1008.68 1008.79 1008.28 1008.10 1006.74 1006.05 1002.24 1001.29 1000.72 1000.66 1000.48 1000.26 1000.92 1000.78 1001.13 1001.72 1002.28 1002.64 1003.33 1004.30 1004.98 1005.96 1007.06 1007.95 1008.50 1009.15 1009.78 1010.59 1011.18 1011.98 1012.82 1013.38 1013.82 1014.40 1014.59 1014.30
1007.24 1006.78 1006.68 1006.51 1006.83 1007.30 1007.75 1008.31 1008.64 1008.63 1008.43 1007.66 1006.19 1005.33 1002.05 1000.28 999.12 999.45 999.52 999.97 1000.61 1000.78 1001.28 1001.52 1001.91 1002.98 1004.14 1004.87 1005.53 1006.33 1007.28 1008.36 1008.94 1009.56 1010.46 1011.19 1011.79 1012.80 1013.25 1013.69 1014.32 1015.23 1016.20 1015.46
1006.91 1005.49 1005.19 1006.00 1006.70 1006.85 1007.60 1008.12 1008.92 1008.84 1007.72 1006.38 1004.94 1004.62 1001.56 998.93 998.07 998.04 998.92 999.36 1000.27 1000.72 1001.38 1001.98 1002.60 1003.43 1004.25 1005.06 1005.84 1006.77 1007.69 1008.70 1009.18 1009.96 1010.89 1011.68 1012.21 1013.08 1014.03 1014.54 1015.07 1015.02 1015.78 1016.58
1007.30 1005.47 1004.91 1005.40 1005.91 1005.94 1006.50 1006.90 1007.21 1007.34 1006.90 1005.58 1004.28 1002.15 999.79 998.30 997.63 997.79 998.42 999.12 1000.14 1000.94 1001.35 1001.95 1002.48 1003.16 1004.26 1005.17 1006.06 1006.96 1007.92 1008.78 1009.41 1010.12 1011.02 1011.96 1012.47 1012.80 1013.32 1014.24 1015.42 1015.48 1015.81 1016.66
1007.66 1006.02 1004.87 1004.70 1005.12 1006.12 1006.19 1006.57 1006.43 1006.70 1005.62 1004.65 1002.99 1000.66 998.98 997.97 997.42 997.46 998.30 999.01 999.95 1000.68 1001.31 1002.02 1002.92 1003.74 1004.69 1005.59 1006.45 1007.23 1008.14 1008.99 1009.82 1010.28 1011.04 1011.47 1011.72 1012.41 1013.32 1013.90 1014.98 1016.01 1016.07 1016.57
1008.06 1006.68 1004.58 1003.90 1005.02 1005.77 1005.71 1006.01 1006.87 1006.88 1005.62 1003.86 1001.66 999.80 998.12 997.60 997.92 997.30 998.07 998.66 999.78 1000.70 1001.64 1002.64 1003.50 1004.24 1005.36 1006.25 1006.88 1007.85 1008.56 1009.30 1010.09 1010.60 1011.08 1011.54 1012.31 1013.17 1013.76 1014.22 1015.34 1016.47 1016.62 1017.36
1007.93 1007.00 1005.17 1004.56 1004.56 1004.81 1005.56 1005.58 1005.96 1005.84 1005.27 1002.95 1000.88 999.14 997.92 997.62 997.57 996.89 997.46 998.19 999.28 1000.48 1001.56 1002.66 1003.89 1005.41 1006.12 1006.76 1007.47 1008.36 1009.06 1009.76 1010.63 1011.04 1011.68 1012.27 1013.13 1013.77 1014.60 1014.96 1015.53 1016.69 1017.46 1018.02
1007.47 1006.45 1005.28 1004.49 1003.63 1004.30 1004.69 1005.20 1005.48 1005.29 1004.37 1002.52 1000.86 998.69 997.63 997.57 997.46 997.28 997.89 998.52 999.58 1000.60 1001.85 1003.18 1004.71 1005.74 1006.58 1007.51 1008.50 1009.23 1009.90 1010.55 1011.18 1011.80 1012.53 1013.32 1013.92 1014.71 1015.22 1015.54 1016.48 1017.20 1018.50 1019.17
1007.31 1006.03 1005.36 1004.55 1004.67 1004.31 1004.63 1004.59 1004.54 1004.65 1004.18 1002.11 1000.71 998.86 997.54 997.20 997.50 997.65 997.87 999.02 1000.11 1001.29 1002.48 1004.04 1005.28 1006.42 1007.30 1008.26 1009.43 1010.03 1010.70 1011.31 1011.90 1012.42 1013.16 1014.12 1014.74 1015.36 1016.22 1016.64 1017.21 1018.26 1018.78 1019.41
1006.83 1005.92 1005.30 1004.82 1003.81 1003.82 1003.84 1004.08 1004.23 1004.06 1004.51 1002.70 1000.70 998.79 998.06 997.68 997.54 998.09 998.68 999.68 1001.04 1002.20 1003.25 1004.74 1006.12 1007.18 1008.10 1009.22 1010.22 1010.86 1011.75 1012.19 1012.76 1013.45 1014.19 1014.82 1015.48 1016.18 1017.01 1017.62 1018.48 1019.11 1019.79 1020.28
1005.98 1005.47 1005.03 1004.00 1003.58 1003.46 1002.99 1003.50 1004.20 1003.66 1003.02 1002.60 1000.44 999.25 998.34 998.05 998.08 998.48 999.59 1000.78 1001.84 1003.29 1004.68 1005.77 1006.90 1008.13 1009.15 1010.07 1011.07 1011.96 1012.66 1013.25 1013.83 1014.58 1015.32 1015.98 1016.50 1017.16 1017.99 1018.50 1019.25 1020.08 1020.39 1020.50
1006.30 1005.58 1004.80 1003.65 1002.85 1002.96 1003.13 1003.62 1003.35 1003.18 1002.50 1001.65 1001.23 999.65 998.97 998.98 999.45 1000.22 1001.08 1001.98 1003.06 1004.56 1005.88 1006.95 1008.12 1008.86 1010.14 1011.13 1012.09 1012.85 1013.55 1014.38 1015.10 1015.76 1016.45 1017.12 1017.65 1018.25 1018.91 1019.46 1020.18 1020.70 1020.80 1020.76
1006.72 1005.87 1005.07 1004.28 1002.81 1003.11 1003.84 1004.29 1004.04 1003.38 1002.80 1002.20 1001.62 999.94 999.97 1000.74 1001.47 1002.12 1002.85 1003.91 1004.50 1005.86 1006.89 1008.13 1009.12 1009.61 1011.11 1012.16 1012.98 1013.84 1014.14 1015.08 1015.98 1016.72 1017.48 1017.73 1018.20 1018.65 1019.30 1019.62 1020.01 1020.40 1020.76 1020.86
1007.05 1006.37 1005.67 1005.10 1003.82 1004.19 1004.73 1004.74 1003.92 1003.13 1001.76 1001.04 1001.30 1001.57 1001.87 1002.56 1003.66 1004.40 1004.96 1005.36 1006.56 1007.24 1008.20 1009.12 1010.21 1011.00 1012.07 1012.98 1013.64 1014.60 1014.97 1016.07 1016.78 1017.59 1018.22 1018.56 1018.85 1019.18 1019.51 1019.80 1020.24 1020.79 1021.22 1021.51
1008.03 1007.15 1006.35 1006.02 1005.07 1005.08 1005.08 1005.56 1005.40 1005.20 1004.61 1003.50 1002.90 1003.04 1003.44 1004.06 1004.76 1006.92 1007.36 1007.65 1008.42 1009.04 1009.46 1010.25 1011.28 1011.92 1012.90 1013.96 1014.16 1015.08 1016.13 1016.89 1017.56 1018.29 1018.69 1018.88 1019.09 1019.46 1019.78 1020.29 1021.04 1021.46 1021.65 1022.19
1008.53 1007.69 1007.23 1007.48 1007.06 1007.24 1007.90 1007.57 1007.17 1006.28 1005.52 1004.93 1003.85 1004.12 1004.40 1004.48 1006.73 1009.13 1009.44 1009.51 1010.29 1010.65 1010.94 1011.61 1012.59 1013.13 1014.08 1014.82 1015.31 1015.99 1017.06 1017.82 1018.66 1019.00 1019.28 1019.45 1019.60 1019.94 1020.33 1020.75 1021.07 1021.68 1022.23 1022.83
1010.73 1010.45 1009.78 1009.84 1009.06 1008.44 1009.23 1008.22 1007.42 1007.26 1006.46 1005.59 1005.13 1005.54 1005.76 1006.66 1008.18 1009.69 1010.73 1011.26 1011.74 1012.35 1012.73 1013.42 1014.01 1014.73 1015.38 1015.77 1016.45 1017.52 1018.28 1019.16 1019.56 1019.71 1020.05 1020.22 1020.35 1020.67 1020.90 1021.23 1021.63 1022.12 1022.77 1023.20
1013.39 1013.23 1012.32 1011.48 1010.82 1011.14 1009.94 1008.66 1007.81 1007.78 1006.88 1006.00 1006.65 1007.32 1007.90 1008.96 1009.87 1010.66 1012.05 1012.58 1013.38 1014.01 1014.70 1015.37 1015.38 1016.36 1016.84 1017.25 1017.76 1018.85 1019.45 1019.92 1020.17 1020.47 1020.73 1020.97 1021.14 1021.42 1021.64 1021.84 1022.37 1022.69 1022.92 1023.09
1015.02 1015.17 1014.32 1013.18 1013.28 1012.84 1011.60 1010.19 1008.06 1008.55 1008.16 1007.69 1007.88 1008.65 1008.40 1009.69 1011.78 1012.20 1013.08 1014.08 1014.90 1015.56 1016.20 1016.76 1017.16 1017.76 1018.46 1018.86 1019.16 1019.86 1020.58 1020.55 1020.85 1021.05 1021.47 1021.86 1022.04 1022.13 1022.23 1022.40 1022.68 1023.03 1023.33 1023.59
1015.62 1015.94 1015.39 1014.58 1013.71 1013.11 1012.08 1010.42 1009.07 1008.52 1008.32 1008.62 1009.48 1009.95 1010.26 1010.46 1011.96 1013.62 1014.86 1015.57 1016.02 1016.98 1017.55 1017.92 1018.40 1019.22 1019.94 1020.19 1020.46 1020.68 1021.04 1021.11 1021.40 1021.92 1022.34 1022.53 1022.56 1022.82 1023.03 1023.10 1023.25 1023.66 1024.19 1024.46
1016.66 1016.41 1015.83 1015.20 1014.75 1013.40 1012.10 1011.76 1011.18 1010.28 1010.08 1010.14 1010.68 1011.54 1011.92 1012.02 1013.66 1014.80 1015.82 1016.94 1017.19 1017.87 1018.53 1019.09 1019.66 1020.30 1021.00 1021.28 1021.35 1021.48 1021.72 1021.78 1022.21 1022.61 1022.82 1023.00 1023.37 1023.58 1023.74 1024.05 1024.20 1024.46 1024.94 1025.06
1017.05 1016.98 1016.81 1016.50 1016.17 1015.58 1014.54 1013.22 1012.24 1011.70 1011.80 1011.94 1012.05 1012.93 1013.95 1013.75 1014.65 1015.88 1016.99 1017.62 1017.97 1018.81 1019.78 1019.94 1020.52 1021.10 1021.75 1021.89 1022.14 1022.44 1022.49 1022.68 1022.83 1023.24 1023.66 1023.74 1023.91 1024.15 1024.42 1024.59 1024.97 1024.97 1025.17 1025.46
Wind_Speed
4 4 12 13 10 11 8 12 11 4 8 5 11 7 9 19 8 9 9 7 9 12 9 11 16 15 14 12 14 14 12 9 9 6 6 3 5 3 2 2 3 5 4 6
1 13 17 11 9 12 13 13 17 6 9 12 16 13 8 14 17 8 10 8 11 7 9 12 14 15 17 18 14 12 11 11 9 7 3 3 4 3 4 3 4 4 4 5
15 13 10 12 13 12 14 15 10 9 8 14 12 18 15 15 16 7 9 7 9 16 15 14 15 15 14 14 15 14 13 11 9 6 5 4 6 4 3 5 4 6 11 12
10 4 13 19 19 17 19 10 11 10 9 9 8 8 9 17 15 12 10 9 11 10 13 17 16 14 15 17 14 11 11 10 7 8 7 6 4 5 5 6 5 7 11 10
9 5 7 16 22 20 11 10 12 13 14 3 8 5 8 12 14 10 12 11 10 14 17 16 17 18 17 13 13 8 8 7 7 7 8 8 11 8 7 7 9 9 8 8
21 15 13 15 8 15 10 5 9 13 7 10 12 12 5 9 21 17 8 10 11 12 11 14 15 10 8 7 7 8 12 9 9 10 9 11 14 8 8 8 8 7 6 4
10 10 6 10 9 9 15 10 4 7 5 6 15 9 13 9 13 20 15 12 11 14 13 10 11 11 10 11 10 10 13 11 11 11 9 10 11 10 8 7 5 7 8 3
6 7 6 10 8 7 20 14 7 8 7 7 12 10 8 26 14 9 12 11 12 10 14 15 13 11 10 11 12 14 14 11 10 11 11 11 12 8 8 9 4 6 8 5
5 6 1 11 7 10 12 15 4 2 4 4 6 9 3 10 6 10 14 13 16 15 15 14 10 10 11 11 12 15 16 12 10 11 13 13 10 10 10 12 11 7 8 5
3 8 9 2 6 11 3 9 3 1 2 5 8 13 7 11 10 15 12 15 10 15 15 14 12 13 11 12 14 15 14 14 11 10 8 9 9 9 10 13 12 9 8 8
6 6 4 6 6 8 4 7 2 3 4 3 4 6 3 3 6 20 17 11 17 19 18 17 15 13 13 14 14 14 14 14 12 12 12 12 11 12 11 11 11 10 10 9
4 4 4 6 5 4 6 6 5 5 3 5 3 4 1 7 7 7 12 15 17 20 21 19 17 15 15 15 14 14 13 14 13 14 15 13 13 12 11 12 12 11 10 7
3 4 2 7 2 2 6 9 4 3 3 3 3 4 4 6 7 11 20 19 19 21 22 18 16 15 16 17 15 15 14 14 14 15 15 14 13 13 11 11 12 10 10 7
14 4 3 4 4 3 6 11 6 2 4 7 8 5 7 11 18 17 19 21 20 20 21 19 17 17 17 17 15 16 14 14 14 15 14 14 12 12 11 11 10 9 7 7
5 2 3 9 11 5 8 15 12 7 5 7 10 1 8 13 18 19 21 20 22 21 20 19 19 17 17 17 15 15 14 14 13 14 13 12 12 12 11 11 10 8 7 7
4 3 4 5 2 6 6 11 8 9 13 12 12 5 10 14 16 18 18 21 22 21 20 20 20 21 18 17 15 15 14 14 12 13 12 11 11 11 11 11 10 9 8 8
2 3 3 4 4 9 5 5 1 3 12 4 7 7 19 17 17 15 17 18 22 22 21 20 19 19 16 15 14 14 15 13 13 12 10 9 9 10 9 9 9 9 8 8
4 2 1 1 6 3 5 7 4 2 8 3 13 16 21 22 20 17 15 19 19 20 21 19 16 17 15 14 16 13 14 13 12 11 9 8 8 9 8 9 9 8 7 8
7 5 1 3 3 2 8 11 9 8 8 7 18 19 22 25 26 18 15 16 16 18 18 18 16 16 16 13 15 15 14 12 12 9 8 7 8 8 8 9 8 7 9 8
9 5 3 4 3 4 5 12 14 6 2 10 14 17 20 19 15 8 11 17 17 16 16 16 15 16 16 13 14 15 12 12 10 8 7 7 6 7 7 8 8 7 8 8
8 6 6 6 2 2 6 19 8 1 2 5 8 8 10 12 12 14 14 16 16 14 16 15 15 14 13 13 15 14 11 10 7 8 8 8 7 8 6 7 8 8 8 7
5 4 3 4 2 2 16 17 3 4 8 9 13 16 21 20 19 19 15 17 17 17 16 14 16 13 11 12 14 12 11 5 8 9 9 9 8 6 6 9 7 8 7 7
2 4 4 4 2 7 16 13 18 7 4 10 15 14 24 22 18 17 18 16 16 16 14 12 14 14 11 10 10 12 4 7 9 10 9 8 8 8 7 9 8 6 7 6
3 2 2 4 4 11 13 13 10 9 13 14 14 15 18 27 18 18 14 14 15 13 13 11 14 13 11 10 9 8 7 8 10 9 8 6 9 9 8 7 6 6 5 5
3 7 5 1 3 10 16 15 9 13 15 18 17 13 16 21 19 16 13 10 13 12 11 11 12 11 10 9 9 7 7 8 9 8 8 8 7 8 7 7 5 5 5 4
4 4 4 3 6 4 6 9 12 14 14 15 19 17 13 17 20 16 13 11 12 12 9 10 11 11 10 9 9 8 7 7 8 7 6 6 5 5 4 4 4 8 6 6
Wind_Direction
208 161 220 218 208 240 252 261 260 264 284 331 256 306 289 282 270 276 260 209 213 206 160 161 159 157 152 161 169 179 170 166 163 169 165 163 191 159 149 166 182 170 147 162
339 233 237 232 208 229 240 251 255 266 260 275 282 284 291 268 257 221 233 191 215 196 137 148 155 154 166 171 177 174 181 175 180 181 164 131 118 101 93 117 99 108 133 107
231 234 221 235 232 228 227 232 261 250 269 276 280 283 271 256 245 222 244 194 195 188 162 156 161 168 164 171 177 182 180 176 178 143 117 84 90 74 69 56 57 86 83 72
251 243 246 240 233 219 240 222 236 240 237 248 202 281 236 229 226 216 234 216 175 178 170 162 167 166 172 185 181 177 177 163 138 137 125 129 109 101 78 79 77 84 91 96
243 215 229 237 237 215 230 209 208 227 223 243 245 251 260 222 210 202 222 223 171 172 168 167 174 177 184 169 174 153 105 99 104 88 101 105 100 106 105 98 83 81 74 72
255 257 260 227 220 216 222 186 220 240 200 229 217 210 255 200 202 197 201 202 162 169 171 173 179 162 143 115 131 116 113 102 99 96 95 102 105 102 108 107 97 58 32 87
300 267 204 195 223 228 202 152 179 217 196 224 193 214 246 248 216 202 195 190 148 169 164 163 158 158 151 143 129 117 113 117 119 111 108 105 99 98 108 92 102 133 107 7
285 312 150 168 197 193 188 182 168 184 173 215 238 220 224 240 248 202 159 182 135 157 163 169 174 170 144 129 119 112 120 129 127 121 119 127 134 143 129 123 132 127 125 139
282 252 128 190 190 196 172 213 203 320 208 154 186 246 238 226 189 163 156 168 160 162 163 163 140 123 127 123 121 121 119 107 113 133 136 149 144 130 119 118 112 115 105 91
280 280 265 354 171 213 219 152 181 268 214 190 209 213 218 161 185 160 163 176 136 145 140 135 118 115 114 113 105 101 104 106 105 101 103 108 95 95 112 111 104 103 91 100
242 222 331 128 197 187 201 176 206 146 249 277 174 225 158 150 171 164 175 147 139 139 134 122 111 114 109 102 99 102 101 103 95 92 89 92 95 98 106 99 96 91 87 82
254 277 248 234 11 285 179 160 189 145 231 230 253 250 235 213 200 147 133 134 132 131 129 118 118 116 105 97 96 97 98 101 101 102 99 99 96 92 87 91 92 92 93 88
329 269 358 339 26 18 159 228 171 108 359 297 344 271 28 120 128 141 129 129 126 125 114 113 110 110 106 102 102 100 98 99 101 104 104 99 97 95 91 89 86 86 87 74
221 232 242 220 233 162 185 168 110 89 209 322 274 126 93 127 133 132 125 122 125 117 115 112 110 105 104 103 104 98 98 98 101 100 102 103 103 99 99 97 96 94 97 107
306 249 229 260 256 261 151 153 156 194 234 261 323 124 131 139 139 128 123 123 113 113 112 112 110 107 104 102 99 97 95 97 102 104 103 103 104 106 108 105 103 105 101 90
318 304 345 298 160 180 143 148 191 226 245 228 274 183 110 97 105 112 117 118 115 112 114 111 112 107 102 103 104 101 98 96 104 100 102 108 112 115 117 116 120 117 97 81
280 305 353 343 17 115 78 58 287 12 260 208 236 117 100 94 96 103 110 113 114 117 116 114 111 107 109 107 109 107 104 101 99 100 101 102 107 109 114 114 107 99 89 80
335 295 355 6 344 50 79 21 0 303 336 128 80 98 93 89 80 75 91 108 109 112 111 104 107 104 103 109 101 99 94 97 98 95 98 100 107 111 110 104 101 95 87 76
354 292 63 99 344 5 24 10 353 11 17 55 110 103 103 101 81 50 64 85 100 108 107 106 107 105 101 101 98 96 91 93 92 90 91 95 102 104 112 106 109 106 98 85
0 355 120 56 37 40 24 326 334 350 313 277 126 122 131 124 95 87 87 97 96 98 99 102 104 101 97 91 94 92 87 86 84 83 78 76 83 94 97 111 103 89 94 99
342 3 25 59 64 46 10 326 314 248 38 181 117 75 98 96 103 108 97 91 86 88 88 88 85 85 87 90 91 87 87 81 81 84 81 74 70 74 77 94 104 109 106 99
349 351 343 341 29 59 347 326 327 352 330 108 91 101 94 91 96 96 99 89 87 85 82 84 85 77 73 86 94 89 81 74 81 83 78 71 64 66 71 87 84 86 90 80
31 21 305 353 36 303 299 255 268 282 274 95 104 114 112 98 87 87 88 87 83 81 80 80 86 83 67 70 87 95 71 87 84 77 69 68 66 64 66 79 78 69 60 64
339 53 308 309 319 322 334 7 46 93 88 95 99 115 109 106 98 86 79 87 89 86 86 88 88 84 79 71 76 84 84 86 86 84 79 76 76 73 67 67 66 68 63 69
309 315 306 311 329 321 4 10 34 82 86 91 86 87 105 110 107 104 95 89 91 86 80 90 93 87 83 81 70 65 69 84 83 79 79 77 77 77 76 62 68 79 52 59
336 345 353 357 323 298 315 358 36 67 81 86 97 90 85 99 100 104 104 96 90 93 97 89 92 93 85 79 74 63 64 77 88 80 79 72 80 71 76 83 75 64 81 63